Weather History for Hawarden, United Kingdom

Change the Weather History Date:

Thursday, September 19, 2013

  Actual Average (EGGP) Record (EGGP)
Temperature  
Mean Temperature 57 °F -  
Max Temperature 66 °F 58 °F 68 °F (1998)
Min Temperature 48 °F 47 °F 42 °F (2000)
Degree Days  
Heating Degree Days 8    
Growing Degree Days 7 (Base 50)    
Moisture  
Dew Point 50 °F    
Average Humidity 72    
Maximum Humidity 94    
Minimum Humidity 47    
Precipitation  
Precipitation 0.08 in - - ()
Sea Level Pressure  
Sea Level Pressure 29.70 in    
Wind  
Wind Speed 10 mph ()    
Max Wind Speed 23 mph    
Max Gust Speed 36 mph    
Visibility 7.0 miles    
Events Rain    
Averages and records for this station are not official NWS values.
T = Trace of Precipitation, MM = Missing Value Source: Averaged Metar Reports

Daily Weather History Graph

Daily Weather History Graph

Search for Another Location

Airport:

Trip Planner

Search our weather history database for the weather conditions in past years. The results will help you decide how hot, cold, wet, or windy it might be!

Date:

Astronomy

Sep. 19, 2013 Rise Set
Actual Time 6:52 AM BST 7:17 PM BST
Civil Twilight 6:17 AM BST 7:52 PM BST
Nautical Twilight 5:36 AM BST 8:33 PM BST
Astronomical Twilight 4:52 AM BST 9:17 PM BST
Moon 6:57 PM BST (9/19) 6:51 AM BST (9/19)
Length of Visible Light 13h 34m
Length of Day
12h 24m
Full, 100% of the Moon is Illuminated
Sep 19
Full
Sep 19
Full
Sep 27
Last Quarter
Oct 5
New
Oct 12
First Quarter

Hourly Weather History & Observations

Time (BST) Temp. Dew Point Humidity Pressure Visibility Wind Dir Wind Speed Gust Speed Precip Events Conditions
12:50 AM 52 °F 44 °F 66% 29.87 in 12 mi West 6.9 mph - - Rain Rain
6:20 AM 51.8 °F 44.6 °F 76% 29.77 in - SSE 8.1 mph - N/A   Clear
6:50 AM 49 °F 44 °F 76% 29.79 in 11 mi SSE 6.9 mph - - Rain Rain
6:50 AM 50.0 °F 44.6 °F 82% 29.77 in 6.2 mi SSE 5.8 mph - N/A   Partly Cloudy
7:20 AM 50.0 °F 44.6 °F 82% 29.77 in 6.2 mi SSE 6.9 mph - N/A Rain Light Rain Showers
7:50 AM 50.0 °F 46.4 °F 87% 29.74 in 6.2 mi SE 9.2 mph - N/A Rain Light Rain
8:20 AM 50.0 °F 46.4 °F 87% 29.71 in 6.2 mi SSE 11.5 mph - N/A   Partly Cloudy
8:50 AM 51.8 °F 46.4 °F 82% 29.68 in 6.2 mi SSE 10.4 mph - N/A   Partly Cloudy
9:20 AM 51.8 °F 48.2 °F 88% 29.68 in 2.5 mi SSE 9.2 mph - N/A Rain Rain
9:50 AM 51 °F 49 °F 88% 29.67 in 4 mi SE 9.2 mph - - Rain Light Rain
9:50 AM 53.6 °F 50.0 °F 88% 29.65 in 2.5 mi SE 9.2 mph - N/A Rain Rain
10:20 AM 51.8 °F 50.0 °F 94% 29.65 in 3.1 mi SSE 9.2 mph - N/A Rain Rain
10:50 AM 53.6 °F 51.8 °F 94% 29.65 in 5.6 mi South 8.1 mph - N/A   Scattered Clouds
11:20 AM 59.0 °F 55.4 °F 88% 29.62 in 6.2 mi SW 12.7 mph - N/A   Scattered Clouds
12:20 PM 64.4 °F 57.2 °F 77% 29.62 in 6.2 mi WSW 15.0 mph - N/A   Scattered Clouds
12:50 PM 65 °F 54 °F 58% 29.64 in 19 mi WNW 18.4 mph - - Rain Rain
12:50 PM 64.4 °F 55.4 °F 73% 29.62 in 6.2 mi WNW 15.0 mph - N/A   Scattered Clouds
1:20 PM 62.6 °F 51.8 °F 68% 29.65 in 6.2 mi NW 23.0 mph 35.7 mph N/A   Scattered Clouds
1:50 PM 64.4 °F 53.6 °F 68% 29.65 in 6.2 mi NW 13.8 mph - N/A   Scattered Clouds
2:20 PM 66.2 °F 55.4 °F 68% 29.65 in 6.2 mi NW 16.1 mph - N/A   Scattered Clouds
2:50 PM 64.4 °F 51.8 °F 64% 29.68 in 6.2 mi NW 16.1 mph 29.9 mph N/A   Scattered Clouds
3:20 PM 62.6 °F 50.0 °F 63% 29.68 in 6.2 mi WNW 10.4 mph 24.2 mph N/A   Scattered Clouds
3:50 PM 63 °F 48 °F 47% 29.70 in 16 mi West 20.7 mph - -  
3:50 PM 66.2 °F 51.8 °F 60% 29.68 in 6.2 mi NW 16.1 mph 28.8 mph N/A   Scattered Clouds
4:20 PM 64.4 °F 50.0 °F 59% 29.71 in 6.2 mi WNW 16.1 mph - N/A   Scattered Clouds
4:50 PM 64.4 °F 48.2 °F 56% 29.71 in 6.2 mi WNW 13.8 mph - N/A   Scattered Clouds
5:20 PM 62.6 °F 48.2 °F 59% 29.71 in 6.2 mi WNW 11.5 mph - N/A   Partly Cloudy
5:50 PM 62.6 °F 48.2 °F 59% 29.71 in 6.2 mi WSW 12.7 mph - N/A   Partly Cloudy
6:20 PM 60.8 °F 48.2 °F 63% 29.71 in 6.2 mi West 12.7 mph - N/A   Scattered Clouds
6:50 PM 62.6 °F 50.0 °F 63% 29.74 in 6.2 mi West 10.4 mph - N/A   Scattered Clouds
7:20 PM 60.8 °F 50.0 °F 68% 29.77 in 6.2 mi WNW 9.2 mph - N/A   Scattered Clouds
7:50 PM 60.8 °F 50.0 °F 68% 29.77 in 6.2 mi WNW 8.1 mph 20.7 mph N/A   Scattered Clouds
9:50 PM 58 °F 47 °F 57% 29.83 in 11 mi West 13.8 mph - -   Mostly Cloudy